Location: Kitt Peak
(31.9633°N, 111.6000°W)
Time: 06:32:14
(UTC-07:00)

Amateur Radio Satellites - All Passes

Search period start: 29 April 2017 06:02
Search period end: 30 April 2017 06:02
Location: Kitt Peak, 31.9633°N, 111.6000°W

Satellite Date Start Highest point End Downlink Frequencies (MHz)
Time Altitude Azimuth
CUTE-I 29 Apr 06:14:11 06:19:08 39° 99° (E) 06:24:03 437.470
ISS 29 Apr 06:14:56 06:18:06 52° 133° (SE) 06:21:18 437.550
XW-2D 29 Apr 06:23:08 06:26:55 63° 100° (E) 06:30:43 145.860 - 145.880
XW-2B 29 Apr 06:30:07 06:33:57 77° 100° (E) 06:37:46 145.730 - 145.750
KAITUO 1B 29 Apr 06:32:52 06:36:38 64° 101° (ESE) 06:40:22 145.475/437.950
STRAND 1 29 Apr 06:32:59 06:37:35 36° 71° (ENE) 06:42:12 437.568
DOVE 4 29 Apr 06:38:09 06:42:30 52° 285° (WNW) 06:46:37 437.250
XW-2C 29 Apr 06:42:12 06:46:00 70° 284° (WNW) 06:49:48 145.795 - 145.815
RS-15 29 Apr 06:43:26 06:55:23 89° 302° (WNW) 07:07:50 29.354- 29.394
LilacSat-2 29 Apr 06:44:30 06:48:18 61° 283° (WNW) 06:52:07 437.200
HO-68 29 Apr 06:45:01 06:50:08 21° 95° (E) 06:55:13 435.675
CUTE 1.7 + AOD 2 29 Apr 06:53:27 06:55:56 15° 94° (E) 06:58:24 437.475
XW-2F 29 Apr 07:05:49 07:09:16 34° 286° (WNW) 07:12:44 145.980 - 146.000
SEEDS 29 Apr 07:08:10 07:10:22 14° 94° (E) 07:12:33 437.485
Tancredo 1 29 Apr 07:08:21 07:10:53 23° 322° (NW) 07:13:27 437.200
NUDT-PHONESAT 29 Apr 07:08:26 07:11:53 38° 286° (WNW) 07:15:23 437.300
M-CUBED/EXP-1 PRIME 29 Apr 07:24:06 07:28:36 56° 256° (WSW) 07:33:13 437.505
ISS 29 Apr 07:53:03 07:54:48 14° 327° (NNW) 07:56:35 437.550
CUTE-I 29 Apr 07:55:00 07:58:51 21° 292° (WNW) 08:02:42 437.470
XW-2A 29 Apr 08:05:45 08:09:01 47° 284° (WNW) 08:12:15 145.665 - 145.685
AAUSAT CUBESAT 2 29 Apr 08:05:55 08:09:40 32° 97° (E) 08:13:24 437.432
UWE-3 29 Apr 08:08:27 08:12:12 30° 98° (E) 08:16:02 435.000/436.395/437.385
STRAND 1 29 Apr 08:13:02 08:16:47 21° 264° (W) 08:20:32 437.568
CUBEBUG 2 29 Apr 08:27:29 08:31:41 85° 286° (WNW) 08:36:00 437.445
CUTE 1.7 + AOD 2 29 Apr 08:27:55 08:31:48 34° 286° (WNW) 08:35:40 437.475
HO-68 29 Apr 08:31:06 08:38:09 60° 289° (WNW) 08:45:11 435.675
O/OREOS (USA 219) 29 Apr 08:41:05 08:44:58 28° 102° (ESE) 08:48:53 437.305
SEEDS 29 Apr 08:42:12 08:46:07 36° 286° (WNW) 08:50:01 437.485
UNISAT 6 29 Apr 08:48:04 08:50:36 15° 69° (ENE) 08:53:07 437.425
FO-29 29 Apr 08:52:31 08:56:49 20° 69° (ENE) 09:00:49 435.910
PRISM 29 Apr 08:55:11 08:58:49 30° 72° (ENE) 09:02:29 437.425
ZACube-1 29 Apr 08:56:46 09:01:01 67° 100° (E) 09:05:22 437.345
RS-15 29 Apr 09:00:08 09:09:41 26° 319° (NW) 09:19:27 29.354- 29.394
AO-73 29 Apr 09:01:50 09:06:06 69° 101° (E) 09:10:26 145.935
Oscar 11 29 Apr 09:13:50 09:18:12 79° 103° (ESE) 09:22:32 .
AAUSAT CUBESAT 2 29 Apr 09:42:16 09:44:49 16° 291° (WNW) 09:47:20 437.432
UWE-3 29 Apr 09:45:38 09:48:24 17° 290° (WNW) 09:51:13 435.000/436.395/437.385
OBJECT BX 29 Apr 09:54:24 09:57:55 42° 99° (E) 10:01:24 145.990 - 145.960
DELFI C3 29 Apr 09:57:46 10:01:45 70° 101° (E) 10:05:42 145.870
TIGRISAT 29 Apr 10:00:23 10:04:46 75° 258° (WSW) 10:09:05 435.000
O/OREOS (USA 219) 29 Apr 10:20:48 10:24:19 21° 297° (WNW) 10:27:51 437.305
UNISAT 6 29 Apr 10:22:58 10:27:00 35° 261° (W) 10:30:59 437.425
NANOSAT C BR1 29 Apr 10:27:00 10:28:09 11° 67° (ENE) 10:29:18 145.865
PRISM 29 Apr 10:31:33 10:34:06 16° 265° (W) 10:36:39 437.425
FO-29 29 Apr 10:35:24 10:41:37 48° 259° (W) 10:47:10 435.910
LO-87 29 Apr 10:48:39 10:51:30 23° 97° (E) 10:54:19 145.935 - 145.965
DUCHIFAT 1 29 Apr 10:52:55 10:56:03 21° 71° (ENE) 10:59:12 145.980
EO-79 29 Apr 10:54:09 10:57:42 27° 72° (ENE) 11:01:16 145.935-145.965
PCSat 29 Apr 10:57:34 11:02:58 65° 64° (ENE) 11:08:20 145.827
ESTCUBE 1 29 Apr 11:05:54 11:09:27 22° 96° (E) 11:12:59 437.505/2401.250
AIST 2D 29 Apr 11:27:47 11:31:04 43° 260° (W) 11:34:24 435.315
POLYITAN 1 29 Apr 11:33:36 11:37:49 88° 79° (E) 11:42:01 437.675
AO-85 29 Apr 11:38:56 11:43:14 56° 299° (WNW) 11:47:18 145.980
QB50P2 29 Apr 11:40:25 11:44:36 69° 258° (WSW) 11:48:49 145.880/145.840
BUGSAT 1 29 Apr 11:42:01 11:45:20 24° 71° (ENE) 11:48:37 437.445
SPROUT 29 Apr 11:45:50 11:48:02 14° 94° (E) 11:50:13 437.525
BEESAT 3 29 Apr 11:56:45 12:00:17 33° 113° (ESE) 12:03:53 437.485
NANOSAT C BR1 29 Apr 11:59:20 12:03:23 47° 260° (W) 12:07:27 145.865
BEESAT 2 29 Apr 12:04:34 12:06:28 13° 108° (ESE) 12:08:23 435.950
LO-87 29 Apr 12:22:40 12:24:41 15° 290° (WNW) 12:26:43 145.935 - 145.965
DUCHIFAT 1 29 Apr 12:28:11 12:31:33 23° 263° (W) 12:34:56 145.980
EO-79 29 Apr 12:30:28 12:33:24 18° 264° (W) 12:36:20 145.935-145.965
50 SAT 29 Apr 12:35:04 12:38:10 30° 98° (E) 12:41:14 437.505
VELOX 1 29 Apr 12:41:09 12:45:34 75° 101° (E) 12:49:57 145.980
ESTCUBE 1 29 Apr 12:42:23 12:46:08 26° 289° (WNW) 12:49:54 437.505/2401.250
PCSat 29 Apr 12:43:35 12:45:42 12° 257° (WSW) 12:47:50 145.827
UKube-1 29 Apr 12:44:28 12:47:17 17° 95° (E) 12:50:05 .
Oscar 19 29 Apr 12:47:19 12:52:12 46° 73° (ENE) 12:57:08 437.125/150
Gurwin Techsat 1B 29 Apr 13:14:02 13:19:07 48° 73° (ENE) 13:24:13 435.225
BUGSAT 1 29 Apr 13:17:28 13:20:34 20° 264° (W) 13:23:39 437.445
SPROUT 29 Apr 13:20:08 13:24:00 36° 287° (WNW) 13:27:53 437.525
DX 1 29 Apr 13:22:38 13:27:00 80° 103° (ESE) 13:31:19 434.975-435.025
BEESAT 3 29 Apr 13:35:29 13:37:56 16° 307° (NW) 13:40:25 437.485
Tancredo 1 29 Apr 13:37:06 13:39:51 28° 39° (NE) 13:42:34 437.200
YUBILEINY 29 Apr 13:37:54 13:43:02 16° 69° (ENE) 13:48:08 435.215
BEESAT 2 29 Apr 13:40:12 13:43:50 36° 302° (WNW) 13:47:33 435.950
RS-15 29 Apr 13:41:14 13:49:23 19° 33° (NNE) 13:57:17 29.354- 29.394
AO-7 29 Apr 13:49:11 13:55:28 25° 60° (ENE) 14:01:44 .
50 SAT 29 Apr 14:09:51 14:10:44 11° 291° (WNW) 14:11:37 437.505
UKube-1 29 Apr 14:19:31 14:23:18 30° 288° (WNW) 14:27:04 .
ITAMSAT 1 29 Apr 14:20:39 14:25:06 30° 70° (ENE) 14:29:33 435.822/435.867
ISS 29 Apr 14:22:50 14:26:05 74° 44° (NE) 14:29:19 437.550
JUGNU 29 Apr 14:26:05 14:29:05 14° 164° (SSE) 14:32:05 437.505
Oscar 19 29 Apr 14:28:33 14:31:40 16° 266° (W) 14:34:50 437.125/150
SO-50 29 Apr 14:34:48 14:39:14 56° 60° (ENE) 14:43:40 436.795
BEESAT 29 Apr 14:49:32 14:53:51 34° 99° (E) 14:58:10 436.000
Gurwin Techsat 1B 29 Apr 14:56:02 14:59:14 16° 266° (W) 15:02:26 435.225
Tancredo 1 29 Apr 15:13:32 15:15:32 16° 233° (SW) 15:17:32 437.200
YUBILEINY 29 Apr 15:31:55 15:40:43 83° 266° (W) 15:49:32 435.215
ITUPSAT 1 29 Apr 15:32:00 15:36:48 80° 284° (WNW) 15:41:35 437.325
AO-7 29 Apr 15:39:22 15:47:32 64° 255° (WSW) 15:55:46 .
MOZHAYETS 4 29 Apr 15:51:02 15:55:40 83° 101° (ESE) 16:00:18
RS-15 29 Apr 15:52:32 16:04:42 69° 59° (ENE) 16:16:10 29.354- 29.394
ITAMSAT 1 29 Apr 16:00:12 16:04:27 26° 263° (W) 16:08:44 435.822/435.867
JUGNU 29 Apr 16:12:56 16:17:27 23° 174° (S) 16:21:59 437.505
SO-50 29 Apr 16:18:04 16:19:09 11° 253° (WSW) 16:20:15 436.795
BEESAT 29 Apr 16:27:57 16:31:21 20° 292° (WNW) 16:34:43 436.000
CUBESAT XI-V 29 Apr 16:50:55 16:55:34 59° 100° (E) 17:00:11 437.345
XW-2D 29 Apr 17:01:02 17:03:09 15° 70° (ENE) 17:05:16 145.860 - 145.880
NO-84 29 Apr 17:01:05 17:04:40 31° 126° (SE) 17:08:01 435.350 FM
XW-2B 29 Apr 17:07:39 17:10:09 17° 71° (ENE) 17:12:39 145.730 - 145.750
KAITUO 1B 29 Apr 17:09:38 17:11:37 14° 70° (ENE) 17:13:36 145.475/437.950
KKS-1 29 Apr 17:15:54 17:20:18 69° 284° (WNW) 17:24:41 437.445
XW-2C 29 Apr 17:19:04 17:22:09 25° 73° (ENE) 17:25:14 145.795 - 145.815
LilacSat-2 29 Apr 17:21:45 17:25:00 28° 74° (ENE) 17:28:17 437.200
CUTE-I 29 Apr 17:31:10 17:36:07 40° 72° (ENE) 17:41:04 437.470
YUBILEINY 29 Apr 17:33:29 17:36:04 12° 282° (WNW) 17:38:40 435.215
DOVE 4 29 Apr 17:36:58 17:42:16 84° 78° (ENE) 17:47:30 437.250
STARS 29 Apr 17:38:05 17:42:27 86° 102° (ESE) 17:46:48 437.465
XW-2F 29 Apr 17:41:25 17:45:00 48° 76° (ENE) 17:48:36 145.980 - 146.000
SRMSAT 29 Apr 17:42:20 17:46:18 18° 167° (SSE) 17:50:17 437.500
NUDT-PHONESAT 29 Apr 17:42:40 17:46:05 39° 75° (ENE) 17:49:31 437.300
JUGNU 29 Apr 18:01:14 18:05:54 24° 184° (S) 18:10:35 437.505
RS-15 29 Apr 18:06:37 18:16:01 28° 258° (WSW) 18:25:08 29.354- 29.394
CUBESAT XI-V 29 Apr 18:30:55 18:32:22 11° 294° (WNW) 18:33:49 437.345
XW-2A 29 Apr 18:32:50 18:35:23 21° 73° (ENE) 18:37:56 145.665 - 145.685
XW-2D 29 Apr 18:33:56 18:37:04 26° 263° (W) 18:40:15 145.860 - 145.880
NO-84 29 Apr 18:39:13 18:42:13 21° 317° (NW) 18:45:02 435.350 FM
XW-2B 29 Apr 18:41:12 18:44:08 22° 264° (W) 18:47:05 145.730 - 145.750
KAITUO 1B 29 Apr 18:42:14 18:45:22 26° 263° (W) 18:48:30 145.475/437.950
STRAND 1 29 Apr 18:49:08 18:52:35 18° 95° (E) 18:56:00 437.568
AAUSAT CUBESAT 2 29 Apr 18:53:18 18:54:44 12° 68° (ENE) 18:56:11 437.432
HO-68 29 Apr 18:53:43 19:00:44 63° 72° (ENE) 19:07:47 435.675
XW-2C 29 Apr 18:54:07 18:56:18 15° 265° (W) 18:58:30 145.795 - 145.815
O/OREOS (USA 219) 29 Apr 18:55:52 18:59:37 25° 64° (ENE) 19:03:20 437.305
LilacSat-2 29 Apr 18:57:29 18:59:18 13° 266° (W) 19:01:07 437.200
UWE-3 29 Apr 19:02:17 19:04:25 14° 69° (ENE) 19:06:32 435.000/436.395/437.385
M-CUBED/EXP-1 PRIME 29 Apr 19:09:48 19:11:48 14° 97° (E) 19:13:43 437.505
CUTE-I 29 Apr 19:12:25 19:16:13 20° 265° (W) 19:20:02 437.470
CUTE 1.7 + AOD 2 29 Apr 19:14:53 19:19:05 86° 74° (ENE) 19:23:20 437.475
CUBEBUG 2 29 Apr 19:20:40 19:24:46 41° 75° (ENE) 19:28:46 437.445
SEEDS 29 Apr 19:28:13 19:32:23 77° 77° (ENE) 19:36:35 437.485
SRMSAT 29 Apr 19:30:05 19:34:54 25° 177° (S) 19:39:43 437.500
ZACube-1 29 Apr 19:48:15 19:51:45 26° 72° (ENE) 19:55:14 437.345
JUGNU 29 Apr 19:50:39 19:54:19 17° 193° (SSW) 19:58:00 437.505
AO-73 29 Apr 19:52:59 19:56:30 27° 72° (ENE) 19:59:59 145.935
Oscar 11 29 Apr 20:03:54 20:07:40 31° 73° (ENE) 20:11:28 .
XW-2A 29 Apr 20:06:16 20:08:03 14° 265° (W) 20:09:51 145.665 - 145.685
AO-85 29 Apr 20:14:40 20:18:07 27° 57° (ENE) 20:21:41 145.980
AAUSAT CUBESAT 2 29 Apr 20:25:48 20:29:44 43° 261° (W) 20:33:43 437.432
STRAND 1 29 Apr 20:27:05 20:31:50 40° 288° (WNW) 20:36:35 437.568
O/OREOS (USA 219) 29 Apr 20:35:16 20:38:52 23° 259° (WSW) 20:42:25 437.305
UWE-3 29 Apr 20:36:35 20:40:32 37° 262° (W) 20:44:26 435.000/436.395/437.385
DELFI C3 29 Apr 20:39:02 20:41:57 20° 71° (ENE) 20:44:52 145.870
M-CUBED/EXP-1 PRIME 29 Apr 20:42:52 20:46:20 29° 293° (WNW) 20:49:34 437.505
HO-68 29 Apr 20:44:02 20:48:48 19° 266° (W) 20:53:37 435.675
CUBEBUG 2 29 Apr 20:59:43 21:01:28 12° 266° (W) 21:03:14 437.445
SRMSAT 29 Apr 21:18:57 21:23:32 23° 188° (S) 21:28:07 437.500
ZACube-1 29 Apr 21:25:07 21:27:59 18° 265° (W) 21:30:50 437.345
AO-73 29 Apr 21:29:53 21:32:41 17° 265° (W) 21:35:29 145.935
Oscar 11 29 Apr 21:41:03 21:43:48 17° 266° (W) 21:46:34 .
FO-29 29 Apr 21:49:30 21:53:49 24° 98° (E) 21:58:25 435.910
BEESAT 3 29 Apr 21:54:53 21:58:53 64° 62° (ENE) 22:02:47 437.485
AO-85 29 Apr 21:55:19 21:58:19 20° 249° (WSW) 22:01:25 145.980
TIGRISAT 29 Apr 21:56:43 22:00:34 31° 98° (E) 22:04:27 435.000
OBJECT BX 29 Apr 22:00:41 22:04:06 39° 261° (W) 22:07:32 145.990 - 145.960
BEESAT 2 29 Apr 22:02:19 22:05:46 26° 56° (NE) 22:09:12 435.950
ESTCUBE 1 29 Apr 22:02:29 22:04:10 12° 66° (ENE) 22:05:51 437.505/2401.250
DELFI C3 29 Apr 22:13:24 22:16:33 22° 264° (W) 22:19:43 145.870
PRISM 29 Apr 22:15:47 22:19:55 80° 283° (WNW) 22:24:00 437.425
UNISAT 6 29 Apr 22:18:41 22:22:59 65° 100° (E) 22:27:21 437.425
LO-87 29 Apr 22:52:10 22:55:48 83° 261° (W) 22:59:26 145.935 - 145.965
AIST 2D 29 Apr 22:58:12 23:00:38 17° 96° (E) 23:03:03 435.315
SRMSAT 29 Apr 23:09:16 23:12:05 13° 197° (SSW) 23:14:54 437.500
POLYITAN 1 29 Apr 23:23:58 23:27:05 20° 96° (E) 23:30:13 437.675
QB50P2 29 Apr 23:30:25 23:33:59 26° 97° (E) 23:37:33 145.880/145.840
VELOX 1 29 Apr 23:33:30 23:37:32 35° 73° (ENE) 23:41:35 145.980
FO-29 29 Apr 23:34:07 23:38:52 34° 288° (WNW) 23:43:59 435.910
TIGRISAT 29 Apr 23:34:08 23:36:59 18° 290° (WNW) 23:39:52 435.000
ESTCUBE 1 29 Apr 23:36:05 23:40:27 51° 260° (W) 23:44:51 437.505/2401.250
BEESAT 2 29 Apr 23:40:24 23:43:19 19° 250° (WSW) 23:46:13 435.950
NANOSAT C BR1 29 Apr 23:48:20 23:52:13 36° 99° (E) 23:56:05 145.865
PCSat 29 Apr 23:53:13 23:56:32 17° 104° (ESE) 23:59:52 145.827
SPROUT 30 Apr 00:07:49 00:12:05 86° 79° (E) 00:16:22 437.525
DX 1 30 Apr 00:13:16 00:17:15 35° 73° (ENE) 00:21:15 434.975-435.025
DUCHIFAT 1 30 Apr 00:15:50 00:20:01 75° 102° (ESE) 00:24:11 145.980
EO-79 30 Apr 00:18:18 00:22:30 80° 283° (WNW) 00:26:42 145.935-145.965
AIST 2D 30 Apr 00:31:09 00:33:42 19° 288° (WNW) 00:36:15 435.315
50 SAT 30 Apr 00:35:04 00:38:31 64° 259° (W) 00:41:59 437.505
POLYITAN 1 30 Apr 00:59:21 01:02:46 25° 289° (WNW) 01:06:12 437.675
BUGSAT 1 30 Apr 01:02:38 01:06:40 80° 104° (ESE) 01:10:40 437.445
Oscar 19 30 Apr 01:04:20 01:08:30 24° 96° (E) 01:12:38 437.125/150
QB50P2 30 Apr 01:06:35 01:09:33 19° 290° (WNW) 01:12:31 145.880/145.840
UKube-1 30 Apr 01:08:13 01:12:32 71° 258° (WSW) 01:16:52 .
VELOX 1 30 Apr 01:11:16 01:14:01 16° 265° (W) 01:16:46 145.980
NO-84 30 Apr 01:17:05 01:19:10 18° 42° (NE) 01:21:14 435.350 FM
NANOSAT C BR1 30 Apr 01:25:23 01:27:34 14° 292° (WNW) 01:29:43 145.865
PCSat 30 Apr 01:34:12 01:39:26 50° 298° (WNW) 01:44:43 145.827
Gurwin Techsat 1B 30 Apr 01:35:32 01:40:06 29° 97° (E) 01:44:38 435.225
DX 1 30 Apr 01:50:56 01:53:29 15° 265° (W) 01:56:02 434.975-435.025
BEESAT 30 Apr 01:51:37 01:55:20 23° 69° (ENE) 01:59:02 436.000
YUBILEINY 30 Apr 02:32:49 02:39:03 22° 83° (E) 02:45:17 435.215
ITUPSAT 1 30 Apr 02:33:40 02:38:22 68° 75° (ENE) 02:43:05 437.325
ITAMSAT 1 30 Apr 02:39:23 02:42:20 15° 94° (E) 02:45:16 435.822/435.867
Oscar 19 30 Apr 02:43:12 02:47:45 32° 290° (WNW) 02:52:16 437.125/150
MOZHAYETS 4 30 Apr 02:47:59 02:52:16 42° 74° (ENE) 02:56:34
NO-84 30 Apr 02:54:34 02:56:32 17° 236° (SW) 02:58:30 435.350 FM
Gurwin Techsat 1B 30 Apr 03:15:27 03:19:54 28° 290° (WNW) 03:24:20 435.225
BEESAT 30 Apr 03:28:51 03:32:54 28° 263° (W) 03:36:58 436.000
AO-7 30 Apr 03:46:19 03:54:33 61° 104° (ESE) 04:02:44 .
CUBESAT XI-V 30 Apr 03:49:27 03:53:33 32° 72° (ENE) 03:57:41 437.345
RS-15 30 Apr 04:05:42 04:09:13 12° 96° (E) 04:12:46 29.354- 29.394
KKS-1 30 Apr 04:08:41 04:13:04 57° 75° (ENE) 04:17:28 437.445
ITAMSAT 1 30 Apr 04:17:00 04:21:58 49° 287° (WNW) 04:26:56 435.822/435.867
YUBILEINY 30 Apr 04:26:30 04:35:03 62° 279° (W) 04:43:39 435.215
MOZHAYETS 4 30 Apr 04:27:21 04:29:34 13° 267° (W) 04:31:46
STARS 30 Apr 04:29:42 04:33:48 39° 73° (ENE) 04:37:56 437.465
SO-50 30 Apr 04:44:01 04:48:34 58° 115° (ESE) 04:53:05 436.795
ISS 30 Apr 05:23:35 05:26:12 23° 129° (SE) 05:28:51 437.550
CUBESAT XI-V 30 Apr 05:27:38 05:30:55 19° 265° (W) 05:34:13 437.345
AO-7 30 Apr 05:40:13 05:46:40 26° 299° (WNW) 05:53:08 .
DOVE 4 30 Apr 05:41:57 05:45:49 30° 96° (E) 05:49:32 437.250
M-CUBED/EXP-1 PRIME 30 Apr 05:51:12 05:52:55 12° 61° (ENE) 05:54:39 437.505
CUTE-I 30 Apr 05:53:34 05:57:48 24° 96° (E) 06:02:00 437.470
